[[{"header":{"parameterUnit":"m.s-1","parameterCategory":1,"la1":30.2991,"la2":30.254,"lo1":-89.0895,"lo2":-89.0444,"dy":0.0017,"dx":0.0017,"nx":28,"ny":28,"refTime":"2024-10-04T03:00:00:Z","depth":0,"parameterNumber":2,"parameterNumberName":"U-component_of_WINDS"},"data":[0,0,0,0,0,0,0,0,0,0,0,0,0,0,0,0,0,0,0,0,0,0,0,0,0,0,0,0,0,0,0,0,0,0,0,0,0,0,0,0,0,0,0,0,0,0,0,0,0,0,0,0,0,0,0,0,0,0,-5.1011,-5.1012,0,-5.1091,-5.1092,-5.1093,-5.0935,-5.093,-5.0924,-5.0919,-5.1004,-5.1011,-5.1018,0,0,0,0,0,0,0,0,0,0,0,0,0,-5.0722,-5.0728,-5.1011,-5.1012,-5.1013,-5.1091,-5.1092,-5.1093,-5.0936,-5.0929,-5.0923,-5.0917,-5.1002,-5.101,-5.1019,0,0,0,0,0,0,0,0,0,0,0,0,0,-5.083,-5.073,-5.1011,-5.0944,-5.0938,-5.1091,-5.1092,-5.1094,-5.0937,-5.0929,-5.0921,-5.0914,-5.0999,-5.101,-5.102,-5.1242,0,0,-5.1053,-5.1057,0,0,0,0,0,0,0,0,-5.0824,-5.0841,-5.0953,-5.0949,-5.0943,-5.0995,-5.1021,-5.1144,-5.0939,-5.0938,-5.0919,-5.091,-5.1008,-5.1017,-5.1049,-5.1246,-5.125,-5.1054,-5.106,-5.1065,-5.1068,0,0,0,0,0,0,0,-5.0817,-5.0836,-5.1043,-5.0954,-5.0949,-5.091,-5.0916,-5.1044,-5.1016,-5.0937,-5.0926,-5.0937,-5.1004,-5.104,-5.105,-5.1251,-5.1053,-5.1063,-5.1069,-5.1074,-5.1634,-5.1642,0,0,0,0,0,0,-5.0817,-5.0831,-5.104,-5.1045,-5.0863,-5.0921,-5.0929,-5.0986,-5.1014,-5.101,-5.0944,-5.093,-5.1025,-5.1038,-5.1053,-5.1315,-5.1065,-5.1075,-5.1081,-5.1626,-5.1636,-5.1645,0,0,0,0,0,0,-5.0812,-5.0837,-5.1037,-5.0935,-5.0957,-5.0935,-5.1,-5.0992,-5.1028,-5.1019,-5.1013,-5.0986,-5.102,-5.1038,-5.1196,-5.1316,-5.1079,-5.1089,-5.1616,-5.1629,-5.164,-5.1842,0,0,0,0,0,0,-5.0804,-5.0836,-5.0921,-5.0938,-5.0964,-5.118,-5.1008,-5.0999,-5.1046,-5.1028,-5.1057,-5.1054,-5.1015,-5.1181,-5.1207,-5.1326,-5.1098,-5.1605,-5.1621,-5.1636,-5.1824,-5.186,-5.189,0,0,0,0,0,-5.0794,-5.0975,-5.0926,-5.0952,-5.1068,-5.1187,-5.1201,-5.1152,-5.1057,-5.1141,-5.1135,-5.1053,-5.1298,-5.1199,-5.1226,-5.1351,-5.1597,-5.1617,-5.1635,-5.181,-5.1853,-5.1889,0,0,0,0,0,0,-5.0973,-5.0976,-5.0922,-5.1113,-5.1151,-5.116,-5.1265,-5.1199,-5.1265,-5.1246,-5.1182,-5.119,-5.1361,-5.1371,-5.126,-5.1567,-5.1431,-5.1457,-5.1555,-5.1596,-5.1628,-5.1623,-5.1106,0,0,0,0,0,-5.1035,-5.113,-5.1127,-5.1297,-5.1318,-5.1289,-5.1339,-5.1297,-5.1334,-5.1349,-5.1355,-5.1394,-5.148,-5.1538,-5.1616,-5.1824,-5.1828,-5.1923,-5.1956,-5.1983,-5.2007,-5.2117,-5.216,-5.1708,-5.1707,-5.1707,0,0,-5.1164,-5.1177,-5.1241,-5.1333,-5.1357,-5.1458,-5.1303,-5.1417,-5.1491,-5.1366,-5.1517,-5.1522,-5.1562,-5.1746,-5.1827,-5.176,-5.2132,-5.2007,-5.2029,-5.2038,-5.2141,-5.2184,-5.2222,-5.1721,-5.1718,-5.1716,0,0,-5.145,-5.1469,-5.1612,-5.1639,-5.1677,-5.1656,-5.1691,-5.1709,-5.1708,-5.1857,-5.1766,-5.1853,-5.2002,-5.2034,-5.207,-5.2366,-5.2294,-5.2393,-5.2566,-5.2675,-5.2711,-5.2742,-5.2849,-5.2888,-5.2416,-5.2417,-5.2417,0,-5.1605,-5.1753,-5.1694,-5.1814,-5.1857,-5.1747,-5.1892,-5.1921,-5.1984,-5.2016,-5.1938,-5.2122,-5.2141,-5.2332,-5.2404,-5.2436,-5.2474,-5.2391,-5.271,-5.2741,-5.2769,-5.287,-5.2911,-5.2429,-5.2427,-5.2426,-5.2425,0,-5.1943,-5.2046,-5.2157,-5.2219,-5.2275,-5.2407,-5.2368,-5.2431,-5.2384,-5.2371,-5.2524,-5.2542,-5.2623,-5.2664,-5.262,-5.2849,-5.2805,-5.272,-5.2583,-5.2825,-5.2919,-5.2958,-5.2446,-5.2442,-5.2438,-5.2435,0,0,-5.2347,-5.2373,-5.2415,-5.2441,-5.2474,-5.2554,-5.268,-5.2757,-5.2813,-5.2859,-5.2964,-5.3091,-5.3012,-5.3053,-5.3011,-5.3107,-5.3341,-5.3009,-5.3009,-5.3072,-5.3595,-5.3661,-5.3707,-5.3292,-5.3299,-5.3305,-5.3592,0,-5.2631,-5.2848,-5.2798,-5.3013,-5.3108,-5.3004,-5.3114,-5.3146,-5.3137,-5.3217,-5.3206,-5.3299,-5.3186,-5.321,-5.33,-5.3294,-5.3446,-5.3272,-5.339,-5.3395,-5.3386,-5.3755,-5.3825,-5.4096,-5.3629,-5.3635,-5.3639,0,-5.2993,-5.3052,-5.3276,-5.3293,-5.3331,-5.3431,-5.3497,-5.3574,-5.3609,-5.3595,-5.364,-5.3579,-5.3704,-5.3564,-5.3737,-5.362,-5.3664,-5.3669,-5.3678,-5.3689,-5.3534,-5.3778,-5.4181,-5.4222,-5.3696,-5.3692,-5.3688,0,-5.3267,-5.3402,-5.3553,-5.3579,-5.3602,-5.3675,-5.3688,-5.3715,-5.3764,-5.3822,-5.3853,-5.3925,-5.3966,-5.4023,-5.3983,-5.3885,-5.4163,-5.4019,-5.4156,-5.4158,-5.4221,-5.4218,-5.4639,-5.4248,-5.4247,-5.4246,-5.4245,0,-5.3591,-5.3733,-5.3677,-5.377,-5.3925,-5.3866,-5.4021,-5.4022,-5.4046,-5.4138,-5.4052,-5.4141,-5.4081,-5.4165,-5.4134,-5.4282,-5.4301,-5.4294,-5.4285,-5.4303,-5.4304,-5.4333,-5.4314,-5.4257,-5.4254,-5.4252,-5.4251,0,-5.3925,-5.3892,-5.4051,-5.4059,-5.4064,-5.4179,-5.4186,-5.4273,-5.4256,-5.4374,-5.4398,-5.4373,-5.4466,-5.4431,-5.4532,-5.4511,-5.47,-5.4665,-5.4689,-5.468,-5.482,-5.4808,-5.5276,-5.5335,-5.4904,-5.4908,-5.4911,0,-5.4135,-5.4241,-5.426,-5.4315,-5.4334,-5.4424,-5.4473,-5.4418,-5.4473,-5.452,-5.4602,-5.4687,-5.4753,-5.4908,-5.4899,-5.4975,-5.4943,-5.5101,-5.4954,-5.4969,-5.4947,-5.4942,-5.4953,-5.5132,-5.5137,-5.5141,-5.5144,0,-5.4512,-5.449,-5.4564,-5.4634,-5.4695,-5.4747,-5.4791,-5.4841,-5.4788,-5.4855,-5.4949,-5.5,-5.5101,-5.5188,-5.5256,-5.5269,-5.52,-5.519,-5.5226,-5.5247,-5.5257,-5.5255,-5.4771,-5.518,-5.5177,-5.5174,-5.5172,-5.5171,-5.4791,-5.488,-5.4908,-5.4993,-5.502,-5.5063,-5.5145,-5.5138,-5.5216,-5.5294,-5.5256,-5.5366,-5.5396,-5.548,-5.5503,-5.5588,-5.5527,-5.5579,-5.5592,-5.5606,-5.5625,-5.5242,-5.56,-5.5599,-5.5598,-5.5597,-5.5596,0,-5.5164,-5.5176,-5.5255,-5.5319,-5.5387,-5.5312,-5.5357,-5.5419,-5.5516,-5.555,-5.5616,-5.5725,-5.5808,-5.5805,-5.5882,-5.5951,-5.5921,-5.5973,-5.5969,-5.5973,-5.5675,-5.5637,-5.5996,-5.5996,-5.5996,-5.5996,-5.5996,-5.5996,-5.5367,-5.5514,-5.5496,-5.5656,-5.5666,-5.5773,-5.5805,-5.5844,-5.5871,-5.5996,-5.6064,-5.606,-5.608,-5.6157,-5.6231,-5.6227,-5.6261,-5.6326,-5.6312,-5.6034,-5.5994,-5.5956,-5.592,-5.6333,-5.6334,-5.6603,-5.6605,-5.6607]},{"header":{"parameterUnit":"m.s-1","parameterCategory":1,"la1":30.2991,"la2":30.254,"lo1":-89.0895,"lo2":-89.0444,"dy":0.0017,"dx":0.0017,"nx":28,"ny":28,"refTime":"2024-10-04T03:00:00:Z","depth":0,"parameterNumber":3,"parameterNumberName":"V-component_of_WINDS"},"data":[0,0,0,0,0,0,0,0,0,0,0,0,0,0,0,0,0,0,0,0,0,0,0,0,0,0,0,0,0,0,0,0,0,0,0,0,0,0,0,0,0,0,0,0,0,0,0,0,0,0,0,0,0,0,0,0,0,0,-2.6964,-2.6964,0,-2.6989,-2.6989,-2.6989,-2.6965,-2.6964,-2.6963,-2.6962,-2.6986,-2.6987,-2.6989,0,0,0,0,0,0,0,0,0,0,0,0,0,-2.6894,-2.6895,-2.6964,-2.6964,-2.6965,-2.6988,-2.6989,-2.6989,-2.6965,-2.6964,-2.6963,-2.6961,-2.6985,-2.6987,-2.6989,0,0,0,0,0,0,0,0,0,0,0,0,0,-2.6922,-2.6895,-2.6964,-2.6955,-2.6955,-2.6988,-2.6989,-2.6989,-2.6965,-2.6964,-2.6962,-2.6961,-2.6985,-2.6987,-2.6989,-2.7032,0,0,-2.6996,-2.6997,0,0,0,0,0,0,0,0,-2.692,-2.6924,-2.6956,-2.6956,-2.6956,-2.6972,-2.6973,-2.7004,-2.6965,-2.6961,-2.6962,-2.696,-2.6982,-2.6985,-2.6993,-2.7033,-2.7034,-2.6997,-2.6998,-2.6999,-2.7,0,0,0,0,0,0,0,-2.6918,-2.6923,-2.6974,-2.6957,-2.6956,-2.6949,-2.6952,-2.6978,-2.6979,-2.6961,-2.696,-2.6963,-2.6982,-2.699,-2.6993,-2.7035,-2.6996,-2.6998,-2.7,-2.7001,-2.711,-2.7111,0,0,0,0,0,0,-2.6917,-2.6922,-2.6973,-2.6974,-2.6934,-2.6952,-2.6955,-2.6968,-2.6979,-2.6979,-2.6964,-2.6962,-2.6987,-2.699,-2.6994,-2.7043,-2.6999,-2.7001,-2.7002,-2.7108,-2.711,-2.7112,0,0,0,0,0,0,-2.6916,-2.6922,-2.6972,-2.6948,-2.6953,-2.6955,-2.697,-2.6969,-2.6978,-2.6981,-2.6981,-2.6973,-2.6986,-2.699,-2.7022,-2.7044,-2.7002,-2.7004,-2.7106,-2.7109,-2.7111,-2.7143,0,0,0,0,0,0,-2.6914,-2.6922,-2.6939,-2.6948,-2.6955,-2.7001,-2.6971,-2.6971,-2.6982,-2.6979,-2.6989,-2.699,-2.6985,-2.7019,-2.7025,-2.7046,-2.7006,-2.7104,-2.7107,-2.711,-2.714,-2.7146,-2.7152,0,0,0,0,0,-2.6912,-2.6947,-2.694,-2.6946,-2.6976,-2.7002,-2.7006,-2.7001,-2.6984,-2.7,-2.7002,-2.6989,-2.7041,-2.7023,-2.7029,-2.7051,-2.7103,-2.7106,-2.711,-2.7138,-2.7145,-2.7152,0,0,0,0,0,0,-2.6941,-2.6949,-2.694,-2.698,-2.6991,-2.6998,-2.7019,-2.7009,-2.7024,-2.7021,-2.7013,-2.7016,-2.7049,-2.7053,-2.7033,-2.7092,-2.7069,-2.7074,-2.7088,-2.7095,-2.7101,-2.7099,-2.7008,0,0,0,0,0,-2.6952,-2.6973,-2.6978,-2.7013,-2.7019,-2.7018,-2.7029,-2.7024,-2.7035,-2.7039,-2.7043,-2.7053,-2.7071,-2.7084,-2.7101,-2.7141,-2.7142,-2.7159,-2.7165,-2.7169,-2.7173,-2.7193,-2.72,-2.7123,-2.7123,-2.7123,0,0,-2.6975,-2.6982,-2.6996,-2.7019,-2.7027,-2.7048,-2.7022,-2.7046,-2.7061,-2.7042,-2.7072,-2.7076,-2.7087,-2.7122,-2.7138,-2.7127,-2.7195,-2.7174,-2.7177,-2.7179,-2.7197,-2.7205,-2.7211,-2.7125,-2.7125,-2.7124,0,0,-2.7027,-2.7035,-2.7064,-2.7072,-2.7084,-2.7083,-2.709,-2.7098,-2.71,-2.713,-2.7116,-2.7133,-2.7165,-2.7173,-2.7181,-2.7235,-2.7223,-2.724,-2.727,-2.7289,-2.7295,-2.7301,-2.7318,-2.7325,-2.7245,-2.7245,-2.7245,0,-2.7054,-2.7086,-2.708,-2.7105,-2.7114,-2.7098,-2.7126,-2.7134,-2.7151,-2.7158,-2.7145,-2.7183,-2.719,-2.7226,-2.7239,-2.7247,-2.7253,-2.7239,-2.7295,-2.73,-2.7305,-2.7322,-2.7329,-2.7247,-2.7246,-2.7246,-2.7246,0,-2.7118,-2.714,-2.7162,-2.7178,-2.719,-2.7217,-2.7214,-2.7227,-2.722,-2.722,-2.725,-2.7257,-2.7274,-2.7282,-2.7277,-2.7318,-2.731,-2.7296,-2.7273,-2.7315,-2.733,-2.7337,-2.7249,-2.7249,-2.7248,-2.7248,0,0,-2.719,-2.7202,-2.721,-2.7216,-2.7227,-2.7243,-2.7268,-2.7285,-2.7296,-2.7307,-2.7327,-2.7354,-2.7341,-2.735,-2.7344,-2.7362,-2.7402,-2.7345,-2.7345,-2.7354,-2.7446,-2.7455,-2.7463,-2.7394,-2.7395,-2.7396,-2.7444,0,-2.7242,-2.7285,-2.728,-2.7321,-2.734,-2.7324,-2.7346,-2.7354,-2.7355,-2.737,-2.7371,-2.7389,-2.7371,-2.7376,-2.7393,-2.7393,-2.742,-2.739,-2.7411,-2.7412,-2.7408,-2.7471,-2.7482,-2.7527,-2.7451,-2.7452,-2.7452,0,-2.7309,-2.7322,-2.7365,-2.7371,-2.7379,-2.7399,-2.7412,-2.7428,-2.7437,-2.7436,-2.7446,-2.7437,-2.746,-2.7437,-2.7468,-2.7448,-2.7456,-2.7458,-2.7459,-2.7461,-2.7434,-2.7473,-2.7542,-2.7548,-2.7462,-2.7461,-2.7461,0,-2.7355,-2.7384,-2.7413,-2.7419,-2.7427,-2.7441,-2.7445,-2.7452,-2.7462,-2.7474,-2.7481,-2.7496,-2.7503,-2.7515,-2.751,-2.7493,-2.7542,-2.7518,-2.754,-2.7541,-2.7551,-2.755,-2.7621,-2.7558,-2.7558,-2.7558,-2.7558,0,-2.7413,-2.7439,-2.7434,-2.7451,-2.748,-2.7473,-2.7501,-2.7503,-2.751,-2.7527,-2.7514,-2.753,-2.7523,-2.7539,-2.7535,-2.7561,-2.7565,-2.7564,-2.7562,-2.7564,-2.7564,-2.7569,-2.7565,-2.756,-2.7559,-2.7559,-2.7559,0,-2.747,-2.7467,-2.7497,-2.7502,-2.7504,-2.7525,-2.7529,-2.7545,-2.7544,-2.7566,-2.757,-2.7569,-2.7586,-2.7582,-2.7601,-2.7598,-2.7631,-2.7626,-2.7628,-2.7626,-2.7648,-2.7646,-2.7724,-2.7733,-2.7665,-2.7666,-2.7667,0,-2.7506,-2.7526,-2.7533,-2.7543,-2.7548,-2.7566,-2.7575,-2.7569,-2.7579,-2.759,-2.7604,-2.762,-2.7633,-2.7661,-2.7661,-2.7676,-2.767,-2.7696,-2.7672,-2.7673,-2.7669,-2.7668,-2.7669,-2.7701,-2.7702,-2.7702,-2.7703,0,-2.7571,-2.7568,-2.7583,-2.7597,-2.7609,-2.762,-2.7629,-2.7638,-2.7632,-2.7644,-2.7662,-2.7671,-2.769,-2.7706,-2.7719,-2.7722,-2.7711,-2.7711,-2.7716,-2.7718,-2.7718,-2.7717,-2.764,-2.7709,-2.7708,-2.7708,-2.7707,-2.7707,-2.7618,-2.7634,-2.7641,-2.7657,-2.7664,-2.7672,-2.7687,-2.7688,-2.7702,-2.7717,-2.7712,-2.7732,-2.7738,-2.7754,-2.7759,-2.7774,-2.7764,-2.7772,-2.7774,-2.7776,-2.7778,-2.7716,-2.7776,-2.7776,-2.7776,-2.7776,-2.7776,0,-2.7681,-2.7684,-2.7699,-2.7712,-2.7725,-2.7713,-2.7723,-2.7734,-2.7751,-2.7758,-2.7771,-2.779,-2.7805,-2.7806,-2.782,-2.7831,-2.7826,-2.7835,-2.7833,-2.7834,-2.7787,-2.778,-2.7838,-2.7838,-2.7838,-2.7838,-2.7838,-2.7838,-2.7715,-2.7741,-2.7739,-2.7768,-2.7771,-2.779,-2.7796,-2.7804,-2.7809,-2.7831,-2.7843,-2.7844,-2.7848,-2.7862,-2.7875,-2.7874,-2.788,-2.789,-2.7888,-2.7844,-2.7838,-2.7832,-2.7825,-2.7891,-2.7891,-2.7933,-2.7933,-2.7934]}]]